Print

CHIHRRCWA 000
TTAA00 KDVN 270904
HOURLY WEATHER ROUNDUP
NATIONAL WEATHER SERVICE QUAD CITIES IA IL
400 AM CDT WED AUG 27 2014

Note: "Fair" indicates few or no clouds below 12,000 feet with no
significant weather and/or obstructions to visibility.

* - These stations are not NWS stations...and not subject to NWS
quality control.  Some stations do not report weather such as fog.

...NORTHEAST IOWA..................................................

  
CITY           SKY/WX    TMP DP  RH WIND       PRES   REMARKS
DECORAH *      CLEAR     59  57  94 CALM      30.16F                  
WATERLOO       CLEAR     62  59  90 NE3       30.14S                  
OELWEIN *      PTCLDY    61  59  94 NE5       30.17S                  
INDEPENDENCE * PTCLDY    63  59  88 NE5       30.16S                  
DUBUQUE        CLOUDY    64  60  87 NE8       30.15F                  

...SOUTHWEST AND SOUTH CENTRAL WISCONSIN...........................

  
CITY           SKY/WX    TMP DP  RH WIND       PRES   REMARKS
PRAIRIE DU CHI PTCLDY    61  57  88 CALM      30.15F                  
BOSCOBEL       CLOUDY    63  60  90 CALM      30.16S                  
LONE ROCK      CLOUDY    68  57  68 CALM      30.16S                  
MINERAL POINT* MOCLDY    63  59  88 N6        30.16F                  
MONROE *       CLOUDY    63  61  94 NE5       30.15F                  
JANESVILLE *   CLOUDY    66  55  68 CALM      30.14R                  

...EAST CENTRAL IOWA...............................................

  
CITY           SKY/WX    TMP DP  RH WIND       PRES   REMARKS
MARSHALLTOWN   MOCLDY    65  63  93 E3        30.14F                  
NEWTON *       MOCLDY    66  63  88 NE7       30.13F                  
VINTON *       PTCLDY    65  63  91 CALM      30.15S                  
CEDAR RAPIDS   LGT RAIN  67  64  90 NE7       30.14R                  
IOWA CITY      CLOUDY    69  63  81 NE6       30.14S                  
MONTICELLO *   CLOUDY    64  63  94 CALM      30.14S                  
CLINTON *      CLOUDY    66  63  88 NE7       30.15F                  
DAVENPORT      MOCLDY    68  64  87 NE6       30.13F                  

...NORTHWEST ILLINOIS..............................................

  
CITY           SKY/WX    TMP DP  RH WIND       PRES   REMARKS
FREEPORT *     CLOUDY    63  60  93 NE3       30.16F                  
ROCKFORD       CLOUDY    67  58  72 NE6       30.15S                  
SAVANNA *      CLOUDY    67  62  81 CALM      30.14R                  
STERLING/R.F.* CLOUDY    68  63  83 N3        30.13F                  
ROCHELLE *     CLOUDY    66  61  83 N5        30.14S                  
MOLINE         MOCLDY    71  64  78 NE7       30.11F                  
PERU *         CLOUDY    69  66  88 N6        30.12S                  

...SOUTHEAST IOWA AND NORTHEAST MISSOURI...........................

  
CITY           SKY/WX    TMP DP  RH WIND       PRES   REMARKS
KNOXVILLE *    PTCLDY    68  63  83 E6        30.11F                  
OTTUMWA        CLEAR     66  64  93 NE6       30.12S                  
FAIRFIELD *    PTCLDY    66  64  94 NE6       30.12S                  
WASHINGTON *   PTCLDY    66  66 100 NE5       30.12S                  
MT PLEASANT *  PTCLDY    67  65  94 NE5       30.11F                  
BURLINGTON     PTCLDY    71  68  90 NE7       30.11S                  
KIRKSVILLE     CLEAR     69  67  93 NE6       30.11S                  

...WESTERN ILLINOIS................................................

  
CITY           SKY/WX    TMP DP  RH WIND       PRES   REMARKS
MACOMB *       PTCLDY    69  68  95 N3        30.12F                  
GALESBURG *    MOCLDY    69  67  94 N5        30.11F                  
PEORIA         MOCLDY    74  67  78 NE3       30.10F                  
QUINCY         PTCLDY    71  69  93 N7        30.09F                  

END...
  

USA.gov is the U.S. government's official web portal to all federal, state and local government web resources and services.